Weather History for Florence, SC

Change the Weather History Date:

Saturday, November 17, 2012

  Actual Average Record
Temperature  
Mean Temperature 49 °F 55 °F  
Max Temperature 59 °F 67 °F 84 °F (1958)
Min Temperature 39 °F 43 °F 23 °F (1967)
Degree Days  
Heating Degree Days 16 10  
Month to date heating degree days 194 143  
Since 1 July heating degree days 287 260  
Cooling Degree Days 0 0  
Month to date cooling degree days 2 16  
Year to date cooling degree days 2310 2058  
Moisture  
Dew Point 39 °F    
Average Humidity 67    
Maximum Humidity 79    
Minimum Humidity 55    
Precipitation  
Precipitation 0.00 in 0.09 in 0.80 in (1987)
Month to date precipitation 1.35 1.48  
Year to date precipitation 37.21 38.71  
Sea Level Pressure  
Sea Level Pressure 30.37 in    
Wind  
Wind Speed 11 mph (NNE)    
Max Wind Speed 18 mph    
Max Gust Speed 25 mph    
Visibility 10 miles    
Events      
T = Trace of Precipitation, MM = Missing Value Source: NWS Daily Summary

Daily Weather History Graph

Daily Weather History Graph

Search for Another Location

Airport:

Trip Planner

Search our weather history database for the weather conditions in past years. The results will help you decide how hot, cold, wet, or windy it might be!

Date:

Astronomy

Nov. 17, 2012 Rise Set
Actual Time 6:54 AM EST 5:13 PM EST
Civil Twilight 6:27 AM EST 5:40 PM EST
Nautical Twilight 5:56 AM EST 6:10 PM EST
Astronomical Twilight 5:27 AM EST 6:40 PM EST
Moon 10:37 AM EST (11/17) 9:20 PM EST (11/17)
Length of Visible Light 11h 12m
Length of Day
10h 19m
Waxing Crescent, 20% of the Moon is Illuminated
Nov 17
Waxing Crescent
Nov 20
First Quarter
Nov 28
Full
Dec 6
Last Quarter
Dec 13
New

Hourly Weather History & Observations

Time (EST) Temp. Windchill Dew Point Humidity Pressure Visibility Wind Dir Wind Speed Gust Speed Precip Events Conditions
12:53 AM 45.0 °F 40.6 °F 37.0 °F 74% 30.35 in 10.0 mi NNE 8.1 mph - N/A   Clear
1:53 AM 46.0 °F 41.4 °F 36.0 °F 68% 30.35 in 10.0 mi NE 9.2 mph - N/A   Clear
2:53 AM 43.0 °F 38.8 °F 36.0 °F 76% 30.35 in 10.0 mi NNE 6.9 mph - N/A   Clear
3:53 AM 42.1 °F 37.1 °F 36.0 °F 79% 30.36 in 10.0 mi North 8.1 mph - N/A   Clear
4:53 AM 42.1 °F 36.6 °F 35.1 °F 76% 30.36 in 10.0 mi North 9.2 mph - N/A   Clear
5:53 AM 41.0 °F 33.9 °F 34.0 °F 76% 30.35 in 10.0 mi North 12.7 mph - N/A   Clear
6:53 AM 39.9 °F 34.5 °F 33.1 °F 77% 30.38 in 10.0 mi NNE 8.1 mph - N/A   Clear
7:53 AM 39.9 °F 33.9 °F 33.1 °F 77% 30.39 in 10.0 mi NNE 9.2 mph - N/A   Clear
8:53 AM 43.0 °F 38.2 °F 34.0 °F 71% 30.41 in 10.0 mi NE 8.1 mph - N/A   Clear
9:53 AM 48.0 °F - 35.1 °F 61% 30.42 in 10.0 mi NNE 11.5 mph 20.7 mph N/A   Clear
10:22 AM 50.0 °F - 35.6 °F 58% 30.42 in 10.0 mi NNE 11.5 mph 19.6 mph N/A   Mostly Cloudy
10:53 AM 52.0 °F - 37.9 °F 59% 30.41 in 10.0 mi NNE 11.5 mph - N/A   Overcast
11:53 AM 53.1 °F - 39.9 °F 61% 30.38 in 10.0 mi NNE 9.2 mph 21.9 mph N/A   Overcast
12:13 PM 55.4 °F - 41.0 °F 58% 30.37 in 10.0 mi NNE 17.3 mph 23.0 mph N/A   Scattered Clouds
12:51 PM 57.2 °F - 41.0 °F 55% 30.38 in 10.0 mi NNE 16.1 mph - N/A   Mostly Cloudy
12:53 PM 57.0 °F - 41.0 °F 55% 30.38 in 10.0 mi NNE 15.0 mph - N/A   Mostly Cloudy
1:16 PM 57.2 °F - 42.8 °F 59% 30.37 in 10.0 mi ENE 12.7 mph - N/A   Overcast
1:53 PM 57.9 °F - 41.0 °F 53% 30.35 in 10.0 mi NNE 11.5 mph - N/A   Overcast
2:53 PM 57.9 °F - 41.0 °F 53% 30.35 in 10.0 mi NNE 13.8 mph - N/A   Scattered Clouds
3:53 PM 57.9 °F - 42.1 °F 56% 30.36 in 10.0 mi NE 9.2 mph - N/A   Overcast
4:53 PM 57.0 °F - 42.1 °F 57% 30.36 in 10.0 mi NE 9.2 mph - N/A   Partly Cloudy
5:53 PM 57.0 °F - 42.1 °F 57% 30.37 in 10.0 mi NE 10.4 mph - N/A   Overcast
6:53 PM 57.0 °F - 41.0 °F 55% 30.38 in 10.0 mi NNE 16.1 mph - N/A   Overcast
7:53 PM 55.9 °F - 41.0 °F 57% 30.38 in 10.0 mi NE 19.6 mph 25.3 mph N/A   Overcast
8:53 PM 55.0 °F - 39.9 °F 57% 30.37 in 10.0 mi NNE 10.4 mph 18.4 mph N/A   Scattered Clouds
9:53 PM 54.0 °F - 39.9 °F 59% 30.38 in 10.0 mi NNE 10.4 mph - N/A   Overcast
10:31 PM 53.6 °F - 39.2 °F 58% 30.37 in 10.0 mi NNE 11.5 mph - N/A   Overcast
10:53 PM 54.0 °F - 39.9 °F 59% 30.37 in 10.0 mi NE 9.2 mph 23.0 mph N/A   Overcast
11:11 PM 53.6 °F - 39.2 °F 58% 30.37 in 10.0 mi NE 13.8 mph - N/A   Overcast
11:53 PM 53.1 °F - 39.0 °F 59% 30.37 in 10.0 mi NNE 11.5 mph 18.4 mph N/A   Overcast